Regional Weather Roundup
Issued by NWS

Home | Current Version | Previous Version | Text Only | Print | Product List | Glossary On
Versions: 1 2 3 4 5 6 7 8 9 10 11 12 13 14 15 16 17 18 19 20 21 22 23 24 25 26 27 28 29 30 31 32 33 34 35 36 37 38 39 40 41 42 43 44 45 46 47 48 49 50
000
ASUS43 KTOP 300859
RWRKS

WEATHER ROUNDUP FOR KANSAS
NATIONAL WEATHER SERVICE GOODLAND KS
400 AM CDT MON MAR 30 2015

NOTE:  "FAIR" INDICATES FEW OR NO CLOUDS BELOW 12,000 FEET WITH NO
SIGNIFICANT WEATHER AND/OR OBSTRUCTIONS TO VISIBILITY.

KSZ001>006-013>018-027>032-041>047-301000-
NORTHWEST KANSAS

CITY           SKY/WX    TMP DP  RH WIND       PRES   REMARKS
GOODLAND       CLEAR     43  22  43 S15       30.14F
HAYS           PTCLDY    36  14  41 SW5       30.17F
HILL CITY      MOCLDY    42  14  32 SE3       30.14F
RUSSELL        CLEAR     36  21  54 SW9       30.15F
$$

KSZ061>065-074>080-084>089-301000-
SOUTHWEST KANSAS

CITY           SKY/WX    TMP DP  RH WIND       PRES   REMARKS
DODGE CITY     CLEAR     42  22  44 S10       30.18F
ELKHART          N/A     47  25  42 S10         N/A
GARDEN CITY    CLEAR     36  24  62 S6        30.16F
GREAT BEND     CLEAR     34  18  51 CALM      30.18F
LIBERAL        CLEAR     45  25  45 S7        30.19F
$$

KSZ066>073-081>083-090>101-301000-
SOUTHEAST KANSAS

CITY           SKY/WX    TMP DP  RH WIND       PRES   REMARKS
CHANUTE        CLEAR     36  34  92 CALM      30.20S
COFFEYVILLE    CLEAR     41  38  89 CALM      30.20S
HUTCHINSON     CLEAR     34  27  75 CALM      30.20F
MEDICINE LODGE   N/A     40  31  70 CALM      30.20F
NEWTON         CLEAR     43  28  56 S6        30.20F
PARSONS        CLEAR     35  34  96 CALM      30.21S
WICHITA INTL   CLEAR     39  31  72 CALM      30.19F
WICHITA JABRA  CLEAR     44  34  67 CALM      30.19S
WINFIELD       CLEAR     42  34  73 CALM      30.21R
$$

KSZ007>012-019>026-033>040-048>060-102>105-301000-
NORTHEAST KANSAS

CITY           SKY/WX    TMP DP  RH WIND       PRES   REMARKS
CONCORDIA      CLEAR     44  25  47 SW9       30.16F
EMPORIA        CLEAR     33  30  88 SE5       30.16F
LAWRENCE       CLEAR     29  26  89 CALM      30.18F
MANHATTAN      CLEAR     31  27  85 CALM      30.18S FOG
OLATHE IND     CLEAR     44  33  65 W5        30.18F
OLATHE EXE     CLEAR     41  33  73 CALM      30.17S
SALINA         CLEAR     33  22  63 SW3       30.19S
TOPEKA BILLARD CLEAR     36  31  82 CALM      30.18F
TOPEKA FORBES  CLEAR     36  31  82 CALM      30.16F
$$


USA.gov is the U.S. government's official web portal to all federal, state and local government web resources and services.